Mosby, MO

7:59 AM CST on January 21, 2018 (GMT -0600)
Clay County Regional

Weather History for KGPH - February, 2013

Change the Weather History Date:

Monday, February 4, 2013

  Actual Average (KMKC) Record (KMKC)
Temperature  
Mean Temperature 32 °F -  
Max Temperature 41 °F 40 °F 70 °F (2008)
Min Temperature 23 °F 24 °F 10 °F (2007)
Degree Days  
Heating Degree Days 32    
Moisture  
Dew Point 27 °F    
Average Humidity 84    
Maximum Humidity 100    
Minimum Humidity 65    
Precipitation  
Precipitation 0.00 in - - ()
Sea Level Pressure  
Sea Level Pressure 29.92 in    
Wind  
Wind Speed 5 mph (NNW)    
Max Wind Speed 18 mph    
Max Gust Speed 24 mph    
Visibility 10 miles    
Events      
Averages and records for this station are not official NWS values.
T = Trace of Precipitation, MM = Missing Value Source: NWS Daily Summary

Daily Weather History Graph

Daily Weather History Graph

Search for Another Location

Airport or City:

Trip Planner

Search our weather history database for the weather conditions in past years. The results will help you decide how hot, cold, wet, or windy it might be!

Date:

Astronomy

Feb. 04, 2013 Rise Set
Actual Time 7:21 AM CST 5:41 PM CST
Civil Twilight 6:53 AM CST 6:09 PM CST
Nautical Twilight 6:21 AM CST 6:41 PM CST
Astronomical Twilight 5:49 AM CST 7:13 PM CST
Moon 1:57 AM CST (2/4) 12:06 PM CST (2/4)
Length of Visible Light 11h 16m
Length of Day
10h 20m
Last Quarter, 37% of the Moon is Illuminated
Feb 4
Last Quarter
Feb 10
New
Feb 17
First Quarter
Feb 25
Full
Mar 4
Last Quarter

Hourly Weather History & Observations

Time (CST) Temp. Windchill Dew Point Humidity Pressure Visibility Wind Dir Wind Speed Gust Speed Precip Events Conditions
12:15 AM 37.4 °F 33.8 °F 28.4 °F 70% 29.85 in 10.0 mi SE 4.6 mph - N/A   Clear
12:35 AM 35.6 °F 30.7 °F 28.4 °F 75% 29.85 in 10.0 mi ESE 5.8 mph - N/A   Clear
12:55 AM 35.6 °F 32.8 °F 28.4 °F 75% 29.84 in 10.0 mi East 3.5 mph - N/A   Clear
1:15 AM 35.6 °F - 28.4 °F 75% 29.83 in 10.0 mi Calm Calm - N/A   Unknown
1:35 AM 33.8 °F - 28.4 °F 81% 29.82 in 10.0 mi Calm Calm - N/A   Clear
1:55 AM 33.8 °F - 28.4 °F 81% 29.82 in 10.0 mi Calm Calm - N/A   Clear
2:15 AM 32.0 °F - 28.4 °F 87% 29.82 in 10.0 mi Calm Calm - N/A   Clear
2:35 AM 32.0 °F - 28.4 °F 87% 29.81 in 10.0 mi Calm Calm - N/A   Clear
2:55 AM 32.0 °F - 28.4 °F 87% 29.80 in 10.0 mi Calm Calm - N/A   Clear
3:15 AM 32.0 °F - 28.4 °F 87% 29.80 in 10.0 mi Calm Calm - N/A   Clear
5:15 AM 32.0 °F - 28.4 °F 87% 29.80 in 10.0 mi Calm Calm - N/A   Clear
5:35 AM 30.2 °F - 28.4 °F 93% 29.80 in 10.0 mi Calm Calm - N/A   Clear
6:15 AM 30.2 °F - 28.4 °F 93% 29.80 in 10.0 mi Calm Calm - N/A   Clear
6:35 AM 30.2 °F - 28.4 °F 93% 29.80 in 10.0 mi Calm Calm - N/A   Clear
7:15 AM 28.4 °F - 26.6 °F 93% 29.82 in 10.0 mi Calm Calm - N/A   Clear
8:15 AM 30.2 °F - 28.4 °F 93% 29.85 in 10.0 mi Calm Calm - N/A   Clear
8:35 AM 32.0 °F 28.7 °F 28.4 °F 87% 29.86 in 10.0 mi NNW 3.5 mph - N/A   Clear
8:55 AM 37.4 °F 31.4 °F 30.2 °F 75% 29.86 in 10.0 mi NNW 8.1 mph - N/A   Clear
9:15 AM 39.2 °F 32.5 °F 32.0 °F 75% 29.87 in 10.0 mi NNW 10.4 mph - N/A   Unknown
9:35 AM 39.2 °F 30.8 °F 32.0 °F 75% 29.87 in 10.0 mi NNW 15.0 mph - N/A   Clear
9:55 AM 41.0 °F 32.8 °F 32.0 °F 70% 29.88 in 10.0 mi NNW 16.1 mph - N/A   Clear
10:15 AM 39.2 °F 29.8 °F 30.2 °F 70% 29.89 in 10.0 mi North 18.4 mph - N/A   Clear
10:35 AM 41.0 °F 33.1 °F 30.2 °F 65% 29.90 in 10.0 mi NNW 15.0 mph - N/A   Clear
11:15 AM 39.2 °F 30.5 °F 30.2 °F 70% 29.92 in 10.0 mi North 16.1 mph - N/A   Clear
11:35 AM 37.4 °F 27.8 °F 30.2 °F 75% 29.94 in 10.0 mi NNW 17.3 mph 20.7 mph N/A   Clear
11:55 AM 33.8 °F 22.8 °F 28.4 °F 81% 29.96 in 10.0 mi NNW 18.4 mph 24.2 mph N/A   Unknown
12:15 PM 32.0 °F 22.1 °F 28.4 °F 87% 29.96 in 10.0 mi North 13.8 mph 17.3 mph N/A   Scattered Clouds
12:35 PM 32.0 °F 22.1 °F 28.4 °F 87% 29.96 in 10.0 mi NNW 13.8 mph - N/A   Unknown
12:55 PM 32.0 °F 21.6 °F 28.4 °F 87% 29.96 in 10.0 mi NNW 15.0 mph - N/A   Overcast
1:15 PM 32.0 °F 24.2 °F 28.4 °F 87% 29.96 in 10.0 mi NNW 9.2 mph 16.1 mph N/A   Unknown
1:35 PM 32.0 °F 22.1 °F 28.4 °F 87% 29.96 in 10.0 mi North 13.8 mph 17.3 mph N/A   Unknown
1:55 PM 32.0 °F 23.0 °F 28.4 °F 87% 29.96 in 10.0 mi NW 11.5 mph 18.4 mph N/A   Overcast
2:15 PM 32.0 °F 23.6 °F 28.4 °F 87% 29.95 in 10.0 mi NNW 10.4 mph - N/A   Overcast
2:55 PM 32.0 °F 22.1 °F 26.6 °F 80% 29.96 in 10.0 mi NNW 13.8 mph - N/A   Overcast
3:15 PM 32.0 °F 23.0 °F 26.6 °F 80% 29.96 in 10.0 mi NNW 11.5 mph - N/A   Overcast
3:35 PM 32.0 °F 22.5 °F 26.6 °F 80% 29.96 in 10.0 mi NNW 12.7 mph - N/A   Overcast
3:55 PM 32.0 °F 21.2 °F 26.6 °F 80% 29.96 in 10.0 mi North 16.1 mph 20.7 mph N/A   Unknown
4:15 PM 32.0 °F 23.0 °F 26.6 °F 80% 29.98 in 10.0 mi NW 11.5 mph - N/A   Overcast
4:35 PM 30.2 °F 20.8 °F 26.6 °F 86% 29.97 in 10.0 mi NNW 11.5 mph 16.1 mph N/A   Overcast
4:55 PM 30.2 °F 21.9 °F 26.6 °F 86% 29.97 in 10.0 mi NNW 9.2 mph - N/A   Overcast
5:15 PM 30.2 °F 21.9 °F 26.6 °F 86% 29.97 in 10.0 mi North 9.2 mph - N/A   Overcast
5:35 PM 30.2 °F 23.4 °F 26.6 °F 86% 29.97 in 10.0 mi North 6.9 mph - N/A   Mostly Cloudy
5:55 PM 30.2 °F 24.3 °F 26.6 °F 86% 29.97 in 10.0 mi North 5.8 mph - N/A   Unknown
6:15 PM 30.2 °F 25.4 °F 24.8 °F 80% 29.97 in 10.0 mi NNW 4.6 mph - N/A   Mostly Cloudy
6:55 PM 30.2 °F 26.7 °F 24.8 °F 80% 29.98 in 10.0 mi NNW 3.5 mph - N/A   Scattered Clouds
7:15 PM 28.4 °F - 24.8 °F 86% 29.99 in 10.0 mi Calm Calm - N/A   Clear
7:35 PM 28.4 °F - 24.8 °F 86% 29.98 in 10.0 mi Calm Calm - N/A   Clear
7:55 PM 28.4 °F 24.6 °F 24.8 °F 86% 29.98 in 10.0 mi WNW 3.5 mph - N/A   Clear
8:15 PM 28.4 °F - 24.8 °F 86% 29.98 in 10.0 mi Calm Calm - N/A   Clear
8:35 PM 26.6 °F - 24.8 °F 93% 29.99 in 10.0 mi Calm Calm - N/A   Unknown
8:55 PM 26.6 °F - 24.8 °F 93% 29.99 in 10.0 mi Calm Calm - N/A   Clear
9:15 PM 26.6 °F - 23.0 °F 86% 29.99 in 10.0 mi Calm Calm - N/A   Clear
9:35 PM 26.6 °F - 23.0 °F 86% 29.99 in 10.0 mi Calm Calm - N/A   Clear
9:55 PM 26.6 °F - 23.0 °F 86% 30.00 in 10.0 mi Calm Calm - N/A   Clear
10:15 PM 26.6 °F - 24.8 °F 93% 29.99 in 10.0 mi Calm Calm - N/A   Clear
10:35 PM 26.6 °F - 23.0 °F 86% 29.99 in 7.0 mi Calm Calm - N/A   Clear
10:55 PM 24.8 °F - 23.0 °F 93% 29.99 in 7.0 mi Calm Calm - N/A   Clear
11:15 PM 24.8 °F - 23.0 °F 93% 29.99 in 7.0 mi Calm Calm - N/A   Clear
11:55 PM 23.0 °F - 23.0 °F 100% 29.97 in 5.0 mi Calm Calm - N/A   Clear